Regional Weather Roundup
Issued by NWS Wakefield, VA

Home | Current Version | Previous Version | Graphics & Text | Print | Product List | Glossary On
Versions: 1 2 3 4 5 6 7 8 9 10 11 12 13 14 15 16 17 18 19 20 21 22 23 24 25 26 27 28
000
ASUS41 KAKQ 231215
RWRAKQ

REGIONAL WEATHER ROUNDUP
NATIONAL WEATHER SERVICE WAKEFIELD VA
700 AM EST THU NOV 23 2017

Note: "fair" indicates few or no clouds below 12,000 feet with no
significant weather and/or obstructions to visibility. * = Denotes
station may not report precipitation (e.g., rain,snow,etc.),
thunder or fog.

VAZ042-051-052>054-056-231300-
NORTHERN VIRGINIA

CITY           SKY/WX    TMP DP  RH WIND       PRES   REMARKS
WASH NATIONAL  CLOUDY    32  23  69 NW8       30.19S
DULLES         CLOUDY    27  21  78 NW5       30.18S
FORT BELVOIR   CLOUDY    26  22  86 CALM      30.19S
QUANTICO       CLOUDY    29  23  78 N6        30.21R
FREDERICKSBRG* PTCLDY    27  26  96 CALM      30.19S
STAFFORD*      CLOUDY    23  23 100 CALM      30.23S
WARRENTON      NOT AVBL
CULPEPER*      CLOUDY    22  19  88 CALM      30.19S
MANASSAS*      CLOUDY    20  17  88 CALM      30.20R
LEESBURG*      CLOUDY    27  25  93 NW6       30.19S
WINCHESTER     CLOUDY    23  18  80 CALM      30.17S
FRONT ROYAL*   CLOUDY    21  19  93 MISG      30.17R
LURAY*         CLOUDY    23  23 100 CALM      30.16S
$$

VAZ048-049-060>072-079>083-231300-
CENTRAL AND SOUTH CENTRAL VIRGINIA

CITY           SKY/WX    TMP DP  RH WIND       PRES   REMARKS
RICHMOND       CLOUDY    30  24  78 N5        30.19R
CHESTERFIELD*  NOT AVBL
PETERSBURG*    CLOUDY    27  19  74 CALM      30.19R
HANOVER        CLOUDY    28  25  88 CALM      30.21R
TAPPAHANNOCK*    N/A    N/A N/A N/A MISG        N/A
QUINTON*       FAIR      29  25  82 CALM      30.19R
CHARLOTTSVILLE PTCLDY    28  22  78 CALM      30.17R
GORDONSVILLE*  CLOUDY    22  21  97 CALM      30.18R
ORANGE*        CLOUDY    21  19  93 CALM      30.18S
LOUISA*        CLOUDY    21  19  93 CALM      30.23R
BUMPASS*       FAIR      30  22  72 CALM      30.19R
FARMVILLE*     CLOUDY    27  27 100 CALM      30.18R
CREWE*         FAIR      27  27 100 CALM      30.18R
FORT PICKETT*  FAIR      29  25  86 N5        30.18S
CHASE CITY*    FAIR      30  26  85 CALM      30.18R
CLARKSVILLE*   FAIR      32  28  86 CALM      30.17S
SOUTH HILL*    PTCLDY    30  27  90 N3        30.23R
LAWRENCEVILLE* FAIR      31  26  81 CALM      30.18R
EMPORIA*       CLOUDY    30  27  86 CALM      30.19S
$$

VAZ088>098-231300-
SOUTHEAST VIRGINIA

CITY           SKY/WX    TMP DP  RH WIND       PRES   REMARKS
NORFOLK        CLOUDY    43  34  70 N12       30.15R
VIRGINIA BEACH MOCLDY    39  30  70 NE7       30.15R
NORFOLK NAVAL  CLOUDY    40  31  70 N12       30.17R
WEST POINT*    MOCLDY    30  26  83 CALM      30.21R
SALUDA*        FAIR      36  27  70 N7        30.18R
NEWPORT NEWS   CLOUDY    34  26  72 N6        30.16S
LANGLEY AFB    PTCLDY    36  28  74 NW7       30.16R
FORT EUSTIS    CLOUDY    36  27  69 N5        30.14R
WILLIAMSBURG*  CLOUDY    34  28  80 CALM      30.18S
HR EXEC AP*    NOT AVBL
FRANKLIN*      CLOUDY    29  26  90 CALM      30.19R
US460-WAKEFLD  CLOUDY    31  26  82 CALM      30.17S
$$

VAZ020-022-025-037-045-231300-
WEST CENTRAL AND SOUTHWEST VIRGINIA

CITY           SKY/WX    TMP DP  RH WIND       PRES   REMARKS
STAUNTON*      CLOUDY    16  14  90 S3        30.17R
WAYNESBORO*    CLOUDY    20  19  96 CALM      30.14R
HOT SPRINGS VA CLOUDY    25  17  70 W12       30.03R WCI  14
LYNCHBURG      PTCLDY    26  22  84 CALM      30.16R
DANVILLE       CLOUDY    29  27  92 CALM      30.17S
SOUTH BOSTON*  FAIR      27  26  96 CALM      30.18S
MARTINSVILLE   CLOUDY    25  23  91 CALM      30.18S
ROANOKE        CLOUDY    27  23  85 NE7       30.17R
BLACKSBURG     CLOUDY    22  21  95 CALM      30.14S
DUBLIN*        CLOUDY    22  20  93 SW3       30.12S
MARION*        CLOUDY    20  16  86 CALM      30.11S
HILLSVILLE*    CLOUDY    25  23  93 SW3       30.06F
RICHLANDS*     FAIR      26  21  83 NE7       30.10R
WISE*          CLOUDY    30  27  86 CALM      30.10R
ABINGDON*      CLOUDY    28  24  84 CALM      30.10S
$$

MDZ021>025-VAZ099-100-231300-
SOUTHERN MARYLAND AND THE DELMARVA PENINSULA

CITY           SKY/WX    TMP DP  RH WIND       PRES   REMARKS
PATUXENT RIVER PTCLDY    35  25  66 NW13      30.17R
BAY BRIDGE APT CLEAR     36  27  69 NW10      30.18R
LEONARDTOWN    PTCLDY    28  27  93 CALM      30.19R
DOVER          CLOUDY    30  26  84 W6        30.16R
GEORGETOWN     CLOUDY    32  23  69 CALM      30.16S
EASTON         PTCLDY    34  23  64 N5        30.20R
CAMBRIDGE      CLEAR     32  25  74 N6        30.17R
SALISBURY      CLOUDY    31  25  78 N5        30.16S
OCEAN CITY     CLOUDY    30  24  78 NW6       30.16R
WALLOPS ISLAND CLOUDY    32  25  75 NW6       30.17R
ACCOMACK*      PTCLDY    32  26  78 NE5       30.17R
$$

NCZ012>017-030>032-231300-
NORTH CENTRAL AND EASTERN NORTH CAROLINA

CITY           SKY/WX    TMP DP  RH WIND       PRES   REMARKS
ROANOKE RAPIDS FAIR      32  30  93 CALM      30.17S
RALEIGH        MOCLDY    33  27  78 NE6       30.16S
ELIZABETH CITY PTCLDY    37  33  85 NW8       30.15R FOG
AHOSKIE*       CLOUDY    32  27  83 CALM      30.18R
EDENTON*       PTCLDY    36  32  85 N6        30.17R
CURRITUCK*     PTCLDY    36  32  85 NW3       30.15R
KILL DEVIL HLS PTCLDY    46  36  68 N5        30.11R
MANTEO         PTCLDY    46  38  73 NE8       30.13R
CAPE HATTERAS  PTCLDY    50  41  71 NE7       30.10R
TARBORO*       NOT AVBL
GOLDSBORO      CLOUDY    38  28  67 N7        30.13S
WASHINGTON     PTCLDY    35  30  82 N7        30.15S
GREENVILLE     CLOUDY    32  30  93 N3        30.18R
NEW BERN       MOCLDY    38  34  85 N8        30.15R
WILMINGTON     CLOUDY    42  35  76 NE8       30.11S
$$

VAZ048-231300-
ELSEWHERE

CITY           SKY/WX    TMP DP  RH WIND       PRES   REMARKS
HARRISBURG PA  CLOUDY    28  20  71 CALM      30.16R
BALTIMORE      CLOUDY    29  22  75 W3        30.18R
ANNAPOLIS      NOT AVBL
ANDREWS AFB    CLOUDY    28  21  74 NW6       30.16S
PHILADELPHIA   PTCLDY    32  17  54 NW7       30.16S
HENDERSON NC   PTCLDY    29  24  80 CALM      30.16S
GREENSBORO     CLOUDY    34  25  69 NE5       30.13S
ROCKY MOUNT    CLOUDY    34  29  82 NE6       30.17R
$$

VAZ100-231300-
MARINE

STATION/POSITION TIME  TEMP    WIND        PRES    WAVE   SWELL
                       AIR SEA DIR/SP/G            HT/PER HT/PER
                 (UTC) (F)     (DEG/KT/KT) (MB)    (FT/S) (FT/S)
BRANDYWINE LGT   1142   36     360/ 18/ 21 1021.2R
CAPE MAY NJ      1148   36 49  350/  7/ 12 1020.6R
LEWES DE         1142   38 50  340/ 13/ 16 1020.8R
15NM E FENWICK I 1150   40 57  330/ 16/ 19 1020.7R   4/10   3/10
OCEAN-CITY-INLET 1142   36 51  340/ 10/ 13 1021.2R
WACHAPREAGUE VA  1142   35 49   10/  6/  9 1021.4R
THOMAS POINT MD  1200   34 51  330/  9/ 10   N/A
GOOSES REEF MD   1150   39      20/ 16/ 19 1017.6R
COVE POINT MD    1142   38     350/ 16/ 21 1022.2R
SOLOMONS ISLAND  1142   36 53  330/  8/ 10 1021.5R
BISHOPS HEAD MD  1142   30 46  340/  4/  6 1021.7R
PINEY POINT MD   1142           10/  8/ 10   N/A
POTOMAC MD       1150   38     330/ 14/ 16 1021.1R
CAMBRIDGE MD     1142   36 48              1022.3R
LEWISETTA VA     1142   38 49  360/  9/ 13 1021.9R
RAPPAHANNOCK LGT 1142          350/ 14/ 15 1021.6R
STINGRAY PT      1150   39     360/ 14/ 17 1021.6R
YORK RVR RNG VA  1142   39     360/ 17/ 20 1021.5R
YORKTOWN VA      1142   36 53  330/  8/ 10 1021.4R
JAMESTOWN VA     1150           30/  6/  8   N/A
DOMINION TERM VA 1142   38      CALM  /  6 1021.4R
KIPTOPEKE VA     1142      53   50/  3/  7   N/A
CAPE HENRY VA    1142   42      20/ 14/ 19   N/A
WILLOUBY STN VA  1142   39     350/ 12/ 14 1020.9R
S CRANEY ISL VA  1142   40     360/ 12/ 14 1020.9R
CAPE HENRY BUOY  1200      59                N/A     4/ 9   2/11
1ST LANDING BUOY 1150   42      60/ 12/ 16 1021.0R
CAPE CHARLES BUO 1151      58                N/A     4/ 9   2/11
64NM E OF VA BCH 1150   47 61  360/ 12/ 17 1020.0R   6/ 8   5/ 8
DUCK PIER NC     1142   47 58   20/ 13/ 16 1019.5R
44100 DUCK FRF   1145      61                N/A     5/ 9   2/11
44056 DUCK FRF   1200      60                N/A     5/ 9   2/11
OREGON INLET NC  1142   48 59   10/ 10/ 13 1019.6R
HATTERAS NC      1142   51 59   30/ 10/ 16 1019.0R
DIAMOND SHLS NC  1200   57 71   10/ 14/ 17 1018.9
CAPE LOOKOUT NC  1200           20/ 11/ 15 1019.5S
$$




USA.gov is the U.S. government's official web portal to all federal, state and local government web resources and services.